Location: Most
(50.5133°N, 13.6207°E)
Time: 02:25:04
(UTC+01:00)

BlueWalker 3 - Visible Passes

Search period start: 29 November 2022 00:00
Search period end: 09 December 2022 00:00
Orbit: 500 x 519 km, 53.2° (Epoch: 28 November)

Date Brightness Start Highest point End Pass type
(mag) Time Alt. Az. Time Alt. Az. Time Alt. Az.
29 Nov 2.0 17:54:57 10° W 17:58:52 70° NNW 18:00:09 40° ENE visible
29 Nov 4.8 19:33:58 10° WNW 19:34:58 17° WNW 19:34:58 17° WNW visible
30 Nov 2.0 17:36:37 10° W 17:40:31 69° NNW 17:42:29 27° ENE visible
30 Nov 4.2 19:15:37 10° WNW 19:17:19 24° WNW 19:17:19 24° WNW visible
01 Dec 2.1 17:18:15 10° W 17:22:10 67° NNW 17:24:50 19° ENE visible
01 Dec 3.4 18:57:15 10° WNW 18:59:39 34° WNW 18:59:39 34° WNW visible
02 Dec 2.1 16:59:53 10° W 17:03:48 66° NNW 17:07:10 13° ENE visible
02 Dec 2.6 18:38:53 10° WNW 18:42:00 49° NW 18:42:00 49° NW visible
03 Dec 2.1 16:41:32 10° W 16:45:26 65° NNW 16:49:19 10° ENE visible
03 Dec 2.0 18:20:31 10° WNW 18:24:22 62° N 18:24:22 62° N visible
04 Dec 2.0 18:02:08 10° WNW 18:06:02 63° N 18:06:45 50° ENE visible
04 Dec 5.0 19:40:54 10° WNW 19:41:35 14° WNW 19:41:35 14° WNW visible
05 Dec 2.0 17:43:44 10° WNW 17:47:39 64° NNE 17:49:11 33° E visible
05 Dec 4.4 19:22:30 10° WNW 19:24:02 22° W 19:24:02 22° W visible
06 Dec 2.0 17:25:21 10° WNW 17:29:15 65° NNE 17:31:42 21° E visible
06 Dec 3.7 19:04:07 10° WNW 19:06:32 32° W 19:06:32 32° W visible
07 Dec 2.0 17:06:56 10° WNW 17:10:51 66° NNE 17:14:17 13° E visible
07 Dec 2.9 18:45:43 10° WNW 18:49:08 45° SW 18:49:08 45° SW visible
08 Dec 2.0 16:48:31 10° WNW 16:52:27 68° NNE 16:56:20 10° E visible
08 Dec 2.9 18:27:18 10° WNW 18:31:02 44° SSW 18:31:52 38° S visible
